Washington State Current Weather Observations

 
 ASUS46 KSEW 071120
 RWRWA 
 
 WASHINGTON REGIONAL WEATHER ROUNDUP
 NATIONAL WEATHER SERVICE SEATTLE WA
 400 AM PDT TUE JUL 07 2020
 
 NOTE:"FAIR" INDICATES FEW OR NO CLOUDS BELOW 12,000 FEET WITH NO 
 SIGNIFICANT WEATHER AND/OR OBSTRUCTIONS TO VISIBILITY.
 
 WAZ507-509-555>559-071200-
 SEATTLE, TACOMA, EVERETT, AND VICINITY
   
 CITY           SKY/WX    TMP DP  RH WIND       PRES   REMARKS
 EVERETT        CLOUDY    54  51  90 N5        30.04S                  
 BOEING FIELD   CLOUDY    58  49  72 S8        30.03S                  
 RENTON         CLOUDY    59  49  69 S9        30.03S                  
 SEATAC AIRPORT CLOUDY    58  50  75 SW10      30.04R                  
 JBLM-MCCHORD   CLOUDY    55  50  81 S8        30.05S                  
 PUYALLUP       CLOUDY    55  52  88 VRB5      30.06R                  
 BREMERTON      CLOUDY    54  51  90 S8        30.03S                  
 JBLM-FT LEWIS  CLOUDY    55  54  99 SE8       30.05R                  
 TACOMA NARROWS CLOUDY    54  49  83 S7        30.04S                  
 
WAZ001-503-506-510-514-515-071200- NORTH INTERIOR CITY SKY/WX TMP DP RH WIND PRES REMARKS BELLINGHAM CLOUDY 57 49 74 S7 30.00R FRIDAY HARBOR CLOUDY 55 49 80 CALM 30.01S EASTSOUND CLOUDY 55 50 82 S8 29.98F PORT ANGELES MOCLDY 54 48 80 SW6 30.02F EDIZ HOOK CLOUDY 53 50 87 W8 30.02S PORT TOWNSEND CLOUDY 54 52 94 CALM 30.02S NAS WHIDBEY CLOUDY 56 49 77 SW8 30.06S ARLINGTON LGT RAIN 55 51 86 CALM 30.04S BURLINGTON CLOUDY 55 54 94 SE5 30.03R
WAZ020-022-039-040-504-511-512-071200- SOUTHWEST INTERIOR CITY SKY/WX TMP DP RH WIND PRES REMARKS SHELTON PTCLDY 54 51 90 SW12 30.01F OLYMPIA LGT RAIN 54 52 93 S6 30.06R FOG CHEHALIS CLOUDY 55 54 94 SW3 30.07S KELSO CLOUDY 55 51 86 S5 30.09R VANCOUVER CLOUDY 59 49 69 CALM 30.08S SCAPPOOSE, OR MOCLDY 54 50 86 W3 30.08R PORTLAND, OR CLOUDY 60 50 69 CALM 30.09S
WAZ021-516-517-071200- WASHINGTON COAST CITY SKY/WX TMP DP RH WIND PRES REMARKS FORKS CLOUDY 53 52 96 SE3 30.03F HOQUIAM LGT RAIN 55 53 93 NW6 30.06R FOG ASTORIA, OR CLOUDY 56 54 93 SW3 30.07S
WAZ019-023-024-040-567>569-071200- CASCADE MOUNTAINS AND COLUMBIA GORGE CITY SKY/WX TMP DP RH WIND PRES REMARKS STAMPEDE PASS CLOUDY 43 41 93 W12G21 30.02R FOG TROUTDALE, OR CLOUDY 59 51 75 S7 30.09R HOOD RIVER, OR CLOUDY 55 46 71 W10G16 30.03R THE DALLES, OR CLEAR 59 47 64 W15G22 29.98R
WAZ026-027-041>044-520-521-071200- EAST SLOPES CITY SKY/WX TMP DP RH WIND PRES REMARKS OMAK PTCLDY 65 47 52 NW12 29.79R WENATCHEE CLEAR 62 43 49 W13 29.85R ELLENSBURG CLEAR 56 43 61 NW22G29 29.90R YAKIMA CLEAR 60 42 51 NW6 29.89R SUNNYSIDE ARPT SUNNY 56 47 71 W3 29.90 YAKIMA TC FAIR 57 40 53 CALM 29.89R
WAZ028-034-035-071200- COLUMBIA BASIN CITY SKY/WX TMP DP RH WIND PRES REMARKS EPHRATA CLEAR 64 40 41 W10 29.81S MOSES LAKE CLEAR 63 45 51 SW7 29.82S PASCO CLEAR 61 49 64 SW6 29.88R RICHLAND ARPT SUNNY 62 47 58 S5 29.88R HERMISTON, OR CLEAR 60 46 59 SW21G29 29.91R
WAZ036>038-071200- NORTHEAST WASHINGTON CITY SKY/WX TMP DP RH WIND PRES REMARKS SPOKANE GEIGER CLOUDY 55 50 83 SE12G22 29.88S SPOKANE FELTS LGT RAIN 57 52 83 E8G17 29.87S FAIRCHILD AFB MOCLDY 55 53 92 S15 29.87S COEURDALENE,ID RAIN 56 53 90 S12 29.94R DEER PARK CLOUDY 60 49 66 S17G25 29.88R
WAZ029>033-071200- SOUTHEAST WASHINGTON CITY SKY/WX TMP DP RH WIND PRES REMARKS PULLMAN MOCLDY 52 50 93 W8G17 29.93F LEWISTON, ID MOCLDY 63 50 62 SE5 29.87R WALLA WALLA CLEAR 58 44 60 S20 29.94R PENDLETON, OR CLEAR 58 43 57 W15G29 29.95R

Data from: http://www.wrh.noaa.gov/sew/get.php?pil=RWR&sid=WA&version=0&format=printer

Current Observations

Current Weather Conditions by Major Highway
Washington State Current Weather Observations   …  Oregon State Current Weather Observation



48 Hour Forecast


Seattle  …  Vancouver  …  Portland
————————————————————————————————————————
Bend  …  Spokane  …  Richland  …  Pendleton  …  Blue Mountains I-84  …  Yakima
————————————————————————————————————————
Goldendale, Washington Higher Elevations  …  Dallesport Airport - Goldendale  …  Bingen - White Salmon - Hood River  …  Index





Top of Page